[[{"header":{"parameterUnit":"m.s-1","parameterCategory":1,"la1":30.2991,"la2":30.254,"lo1":-89.0895,"lo2":-89.0444,"dy":0.0017,"dx":0.0017,"nx":28,"ny":28,"refTime":"2024-08-31T03:00:00:Z","depth":0,"parameterNumber":2,"parameterNumberName":"U-component_of_WINDS"},"data":[0,0,0,0,0,0,0,0,0,0,0,0,0,0,0,0,0,0,0,0,0,0,0,0,0,0,0,0,0,0,0,0,0,0,0,0,0,0,0,0,0,0,0,0,0,0,0,0,0,0,0,0,0,0,0,0,0,0,-3.3162,-3.3164,0,-3.3311,-3.3313,-3.3314,-3.3325,-3.3323,-3.3321,-3.332,-3.3466,-3.3471,-3.3476,0,0,0,0,0,0,0,0,0,0,0,0,0,-3.2882,-3.2887,-3.3162,-3.3164,-3.3166,-3.3311,-3.3313,-3.3315,-3.3325,-3.3323,-3.3321,-3.3319,-3.3464,-3.347,-3.3477,0,0,0,0,0,0,0,0,0,0,0,0,0,-3.3014,-3.2888,-3.3162,-3.3188,-3.3192,-3.331,-3.3313,-3.3315,-3.3325,-3.3323,-3.332,-3.3318,-3.3462,-3.347,-3.3478,-3.3577,0,0,-3.3503,-3.3506,0,0,0,0,0,0,0,0,-3.3006,-3.3024,-3.3182,-3.3187,-3.3191,-3.3297,-3.3268,-3.3403,-3.3326,-3.3274,-3.332,-3.3317,-3.3411,-3.3423,-3.3456,-3.3584,-3.359,-3.3503,-3.3508,-3.3512,-3.3514,0,0,0,0,0,0,0,-3.2997,-3.3018,-3.3221,-3.3185,-3.319,-3.3191,-3.3207,-3.3293,-3.3355,-3.3279,-3.328,-3.3298,-3.3413,-3.3449,-3.346,-3.3593,-3.3503,-3.351,-3.3515,-3.3519,-3.381,-3.3813,0,0,0,0,0,0,-3.2984,-3.301,-3.3216,-3.3225,-3.3091,-3.3198,-3.3216,-3.3265,-3.3354,-3.3365,-3.33,-3.3298,-3.3436,-3.345,-3.3465,-3.3587,-3.3512,-3.3519,-3.3524,-3.3807,-3.3811,-3.3814,0,0,0,0,0,0,-3.2978,-3.3002,-3.321,-3.3118,-3.3145,-3.3206,-3.3261,-3.3269,-3.3305,-3.337,-3.338,-3.3325,-3.3434,-3.3454,-3.355,-3.3592,-3.3523,-3.353,-3.3804,-3.3808,-3.3812,-3.3832,0,0,0,0,0,0,-3.297,-3.3,-3.3039,-3.3119,-3.315,-3.3293,-3.3263,-3.3274,-3.332,-3.3319,-3.3396,-3.3407,-3.3434,-3.3538,-3.3558,-3.3602,-3.3537,-3.38,-3.3806,-3.3811,-3.3827,-3.3836,-3.3843,0,0,0,0,0,-3.296,-3.3037,-3.3041,-3.3066,-3.32,-3.3296,-3.3313,-3.3345,-3.3323,-3.3362,-3.3404,-3.3404,-3.3585,-3.3548,-3.357,-3.3617,-3.3798,-3.3804,-3.3811,-3.3824,-3.3834,-3.3843,0,0,0,0,0,0,-3.2957,-3.3048,-3.3053,-3.3159,-3.322,-3.3297,-3.3347,-3.3355,-3.3422,-3.3417,-3.3453,-3.347,-3.3565,-3.3602,-3.3558,-3.3719,-3.3689,-3.37,-3.3691,-3.3702,-3.371,-3.3697,-3.3543,0,0,0,0,0,-3.297,-3.3041,-3.3116,-3.3202,-3.3233,-3.3285,-3.3328,-3.3348,-3.3412,-3.3437,-3.3485,-3.3546,-3.3616,-3.3662,-3.373,-3.3834,-3.3851,-3.3878,-3.3886,-3.3893,-3.3901,-3.3958,-3.3971,-3.3835,-3.3835,-3.3835,0,0,-3.2994,-3.3053,-3.3095,-3.3203,-3.3253,-3.3325,-3.3307,-3.3383,-3.3437,-3.3448,-3.3541,-3.358,-3.365,-3.3751,-3.3797,-3.3784,-3.3943,-3.3901,-3.3905,-3.391,-3.3966,-3.3979,-3.399,-3.384,-3.3839,-3.3838,0,0,-3.3076,-3.3129,-3.3206,-3.3257,-3.3334,-3.3369,-3.3387,-3.3465,-3.3492,-3.3588,-3.3598,-3.3661,-3.3782,-3.3831,-3.3872,-3.3977,-3.3978,-3.3998,-3.4038,-3.4094,-3.4105,-3.4114,-3.415,-3.4162,-3.4007,-3.4007,-3.4007,0,-3.3096,-3.3207,-3.3244,-3.3322,-3.3368,-3.3386,-3.3463,-3.3511,-3.3605,-3.3636,-3.3621,-3.3774,-3.3822,-3.3934,-3.396,-3.3994,-3.4015,-3.3987,-3.4101,-3.4111,-3.412,-3.4154,-3.4168,-3.4009,-3.4009,-3.4009,-3.4008,0,-3.3227,-3.3304,-3.3357,-3.3451,-3.3504,-3.3581,-3.3629,-3.3678,-3.3695,-3.3731,-3.3829,-3.3888,-3.3969,-3.3998,-3.4013,-3.4113,-3.4102,-3.4094,-3.4063,-3.4134,-3.4167,-3.418,-3.4011,-3.4011,-3.401,-3.401,0,0,-3.3306,-3.3423,-3.3441,-3.3484,-3.3572,-3.3631,-3.371,-3.3792,-3.3832,-3.3898,-3.3963,-3.4067,-3.4061,-3.4107,-3.4129,-3.4179,-3.4256,-3.4164,-3.4166,-3.4177,-3.4368,-3.4371,-3.4386,-3.426,-3.4263,-3.4265,-3.4361,0,-3.3396,-3.3537,-3.3575,-3.3694,-3.3765,-3.3784,-3.3853,-3.3913,-3.395,-3.4015,-3.4055,-3.4128,-3.4115,-3.4143,-3.4193,-3.4236,-3.4294,-3.423,-3.4318,-3.4321,-3.4297,-3.4403,-3.4407,-3.4495,-3.4375,-3.4377,-3.4378,0,-3.3518,-3.3589,-3.3715,-3.3796,-3.3827,-3.3887,-3.3966,-3.4029,-3.4098,-3.4121,-3.4176,-3.4194,-3.4275,-3.4244,-3.4356,-3.4311,-3.4351,-3.4378,-3.4382,-3.4388,-3.4351,-3.441,-3.4524,-3.4536,-3.4399,-3.4398,-3.4396,0,-3.356,-3.3687,-3.378,-3.3816,-3.3912,-3.3955,-3.3996,-3.4064,-3.4111,-3.418,-3.4211,-3.4288,-3.4329,-3.4388,-3.4426,-3.44,-3.4534,-3.4506,-3.4554,-3.4553,-3.4577,-3.4574,-3.4696,-3.4608,-3.4608,-3.4608,-3.4607,0,-3.3654,-3.373,-3.38,-3.3856,-3.3943,-3.3986,-3.407,-3.4112,-3.4172,-3.4236,-3.4259,-3.4318,-3.4366,-3.4432,-3.4463,-3.455,-3.4569,-3.4589,-3.4595,-3.4585,-3.4582,-3.4608,-3.4602,-3.4611,-3.4611,-3.461,-3.4609,0,-3.3713,-3.3764,-3.3866,-3.395,-3.3973,-3.4033,-3.4104,-3.4159,-3.4199,-3.428,-3.4301,-3.4363,-3.4442,-3.4487,-3.4586,-3.4607,-3.4703,-3.4708,-3.468,-3.4682,-3.4726,-3.472,-3.4865,-3.4886,-3.4787,-3.4788,-3.4789,0,-3.3768,-3.3827,-3.3919,-3.3965,-3.4008,-3.4081,-3.4131,-3.4176,-3.4227,-3.4312,-3.4356,-3.4438,-3.4504,-3.463,-3.4682,-3.4758,-3.4763,-3.4809,-3.4774,-3.4762,-3.4761,-3.4755,-3.4761,-3.4813,-3.4814,-3.4815,-3.4816,0,-3.3858,-3.3882,-3.3953,-3.4034,-3.4093,-3.4158,-3.4223,-3.4259,-3.4316,-3.4371,-3.4453,-3.4506,-3.4609,-3.4688,-3.4769,-3.4811,-3.4822,-3.4828,-3.4842,-3.483,-3.481,-3.4819,-3.4693,-3.4822,-3.4822,-3.4821,-3.4821,-3.4821,-3.3915,-3.3969,-3.4043,-3.4122,-3.4177,-3.4238,-3.4294,-3.4342,-3.4412,-3.4501,-3.4524,-3.461,-3.468,-3.479,-3.4834,-3.4902,-3.4893,-3.4915,-3.4919,-3.4923,-3.4923,-3.4803,-3.4917,-3.4917,-3.4917,-3.4917,-3.4916,0,-3.4005,-3.4055,-3.4127,-3.4219,-3.4281,-3.4291,-3.4364,-3.4415,-3.4491,-3.4556,-3.4623,-3.4718,-3.4796,-3.4857,-3.4937,-3.4979,-3.4986,-3.4998,-3.4993,-3.5002,-3.4927,-3.4906,-3.4991,-3.4991,-3.4991,-3.4991,-3.4991,-3.4991,-3.4059,-3.415,-3.4183,-3.4302,-3.4351,-3.4437,-3.4478,-3.4534,-3.4586,-3.4692,-3.4758,-3.4798,-3.4861,-3.4947,-3.5019,-3.5035,-3.5061,-3.5072,-3.5088,-3.5016,-3.5008,-3.5,-3.4979,-3.5078,-3.5079,-3.5157,-3.5158,-3.5158]},{"header":{"parameterUnit":"m.s-1","parameterCategory":1,"la1":30.2991,"la2":30.254,"lo1":-89.0895,"lo2":-89.0444,"dy":0.0017,"dx":0.0017,"nx":28,"ny":28,"refTime":"2024-08-31T03:00:00:Z","depth":0,"parameterNumber":3,"parameterNumberName":"V-component_of_WINDS"},"data":[0,0,0,0,0,0,0,0,0,0,0,0,0,0,0,0,0,0,0,0,0,0,0,0,0,0,0,0,0,0,0,0,0,0,0,0,0,0,0,0,0,0,0,0,0,0,0,0,0,0,0,0,0,0,0,0,0,0,-0.1061,-0.106,0,-0.0972,-0.0971,-0.097,-0.0958,-0.0959,-0.0959,-0.096,-0.0869,-0.0866,-0.0863,0,0,0,0,0,0,0,0,0,0,0,0,0,-0.1219,-0.1216,-0.1061,-0.106,-0.1059,-0.0972,-0.0971,-0.097,-0.0958,-0.0959,-0.096,-0.0961,-0.087,-0.0866,-0.0862,0,0,0,0,0,0,0,0,0,0,0,0,0,-0.1142,-0.1215,-0.1061,-0.1042,-0.104,-0.0972,-0.0971,-0.0969,-0.0957,-0.0959,-0.096,-0.0961,-0.0871,-0.0867,-0.0862,-0.0807,0,0,-0.0847,-0.0845,0,0,0,0,0,0,0,0,-0.1147,-0.1136,-0.1046,-0.1043,-0.104,-0.0977,-0.0993,-0.0915,-0.0957,-0.0989,-0.096,-0.0962,-0.0904,-0.0897,-0.0877,-0.0803,-0.0799,-0.0847,-0.0844,-0.0842,-0.084,0,0,0,0,0,0,0,-0.1152,-0.114,-0.1026,-0.1045,-0.1041,-0.1038,-0.1028,-0.0978,-0.094,-0.0986,-0.0985,-0.0975,-0.0903,-0.0882,-0.0875,-0.0797,-0.0847,-0.0843,-0.084,-0.0838,-0.0673,-0.0671,0,0,0,0,0,0,-0.1161,-0.1145,-0.1028,-0.1023,-0.1098,-0.1034,-0.1023,-0.0996,-0.0941,-0.0934,-0.0974,-0.0974,-0.0889,-0.0881,-0.0872,-0.0803,-0.0842,-0.0837,-0.0835,-0.0674,-0.0672,-0.0671,0,0,0,0,0,0,-0.1164,-0.1151,-0.1032,-0.1083,-0.1068,-0.103,-0.1,-0.0994,-0.0973,-0.0931,-0.0925,-0.0959,-0.089,-0.0878,-0.0823,-0.08,-0.0835,-0.0831,-0.0676,-0.0673,-0.0671,-0.0666,0,0,0,0,0,0,-0.1169,-0.1152,-0.1131,-0.1083,-0.1065,-0.0985,-0.0998,-0.0991,-0.0965,-0.0965,-0.0916,-0.0909,-0.089,-0.083,-0.0818,-0.0794,-0.0827,-0.0678,-0.0675,-0.0672,-0.0668,-0.0664,-0.066,0,0,0,0,0,-0.1175,-0.1133,-0.113,-0.1116,-0.1038,-0.0984,-0.0974,-0.0952,-0.0963,-0.0941,-0.0914,-0.0911,-0.0804,-0.0825,-0.0811,-0.0785,-0.0679,-0.0676,-0.0672,-0.067,-0.0665,-0.066,0,0,0,0,0,0,-0.1179,-0.1127,-0.1122,-0.1064,-0.1029,-0.0982,-0.0954,-0.0948,-0.0908,-0.091,-0.0885,-0.0874,-0.082,-0.0797,-0.082,-0.0728,-0.0743,-0.0736,-0.0745,-0.074,-0.0736,-0.0743,-0.0823,0,0,0,0,0,-0.1174,-0.1134,-0.109,-0.1043,-0.1025,-0.0993,-0.0968,-0.0955,-0.0917,-0.0901,-0.0871,-0.0834,-0.0792,-0.0765,-0.0724,-0.0665,-0.0654,-0.064,-0.0636,-0.0633,-0.0628,-0.0594,-0.0587,-0.0659,-0.0659,-0.066,0,0,-0.1162,-0.1128,-0.1104,-0.1043,-0.1014,-0.0973,-0.098,-0.0937,-0.0906,-0.0895,-0.084,-0.0816,-0.0773,-0.0716,-0.0689,-0.0695,-0.0605,-0.0629,-0.0627,-0.0623,-0.059,-0.0583,-0.0577,-0.0657,-0.0658,-0.0658,0,0,-0.1118,-0.1089,-0.1046,-0.1017,-0.0972,-0.0951,-0.0941,-0.0894,-0.0878,-0.0823,-0.0814,-0.0776,-0.0705,-0.0674,-0.065,-0.0594,-0.0589,-0.0581,-0.0561,-0.0528,-0.0522,-0.0517,-0.0497,-0.049,-0.0576,-0.0576,-0.0576,0,-0.1109,-0.1047,-0.1025,-0.0982,-0.0955,-0.0943,-0.0899,-0.0871,-0.0816,-0.0797,-0.0804,-0.0714,-0.0684,-0.0619,-0.0605,-0.0585,-0.0572,-0.0587,-0.0525,-0.052,-0.0514,-0.0495,-0.0487,-0.0575,-0.0576,-0.0576,-0.0576,0,-0.1037,-0.0994,-0.0965,-0.0912,-0.0881,-0.0838,-0.0809,-0.0781,-0.077,-0.0747,-0.0691,-0.0655,-0.0606,-0.0589,-0.0579,-0.0522,-0.0527,-0.053,-0.0544,-0.0507,-0.0488,-0.0481,-0.0575,-0.0575,-0.0575,-0.0575,0,0,-0.0995,-0.093,-0.0919,-0.0894,-0.0844,-0.081,-0.0766,-0.0718,-0.0694,-0.0656,-0.0618,-0.0557,-0.0559,-0.0531,-0.0516,-0.0488,-0.0445,-0.0494,-0.0492,-0.0486,-0.038,-0.0378,-0.037,-0.0441,-0.044,-0.0439,-0.0383,0,-0.0946,-0.0867,-0.0846,-0.0778,-0.0738,-0.0726,-0.0687,-0.0652,-0.0629,-0.0591,-0.0567,-0.0524,-0.053,-0.0513,-0.0484,-0.0456,-0.0423,-0.046,-0.0405,-0.0404,-0.0416,-0.036,-0.0358,-0.0308,-0.0376,-0.0375,-0.0374,0,-0.0878,-0.0838,-0.0767,-0.0721,-0.0704,-0.0669,-0.0623,-0.0588,-0.0547,-0.0532,-0.05,-0.0488,-0.0441,-0.0457,-0.0391,-0.0417,-0.0393,-0.0376,-0.0373,-0.0367,-0.0387,-0.0352,-0.0291,-0.0284,-0.0362,-0.0363,-0.0364,0,-0.0854,-0.0783,-0.0731,-0.071,-0.0655,-0.0631,-0.0607,-0.0568,-0.054,-0.05,-0.0482,-0.0436,-0.0411,-0.0376,-0.0352,-0.0366,-0.0288,-0.0302,-0.0274,-0.0275,-0.0259,-0.026,-0.0193,-0.0244,-0.0244,-0.0244,-0.0244,0,-0.0801,-0.0758,-0.0719,-0.0687,-0.0638,-0.0614,-0.0566,-0.0541,-0.0506,-0.0469,-0.0455,-0.042,-0.039,-0.0351,-0.0332,-0.028,-0.0269,-0.0255,-0.0251,-0.0256,-0.0258,-0.0241,-0.0243,-0.0242,-0.0242,-0.0243,-0.0243,0,-0.0767,-0.0739,-0.0681,-0.0634,-0.0621,-0.0587,-0.0546,-0.0514,-0.0491,-0.0444,-0.0431,-0.0395,-0.0348,-0.032,-0.0261,-0.0248,-0.019,-0.0187,-0.0204,-0.0202,-0.0176,-0.0178,-0.0095,-0.0082,-0.0142,-0.0141,-0.0141,0,-0.0735,-0.0701,-0.065,-0.0624,-0.06,-0.0558,-0.053,-0.0504,-0.0475,-0.0425,-0.0399,-0.0352,-0.0312,-0.0238,-0.0206,-0.016,-0.0156,-0.013,-0.0149,-0.0156,-0.0155,-0.0157,-0.0154,-0.0126,-0.0126,-0.0126,-0.0125,0,-0.0681,-0.0669,-0.0629,-0.0583,-0.055,-0.0513,-0.0476,-0.0455,-0.0423,-0.0391,-0.0343,-0.0312,-0.0251,-0.0204,-0.0155,-0.013,-0.0122,-0.0119,-0.011,-0.0116,-0.0127,-0.012,-0.0195,-0.0121,-0.0122,-0.0122,-0.0122,-0.0122,-0.0646,-0.0616,-0.0575,-0.053,-0.05,-0.0465,-0.0433,-0.0406,-0.0365,-0.0314,-0.0301,-0.025,-0.0209,-0.0143,-0.0117,-0.0077,-0.0081,-0.0068,-0.0065,-0.0062,-0.0061,-0.0133,-0.0068,-0.0068,-0.0068,-0.0068,-0.0068,0,-0.0592,-0.0565,-0.0524,-0.0473,-0.0437,-0.0433,-0.0391,-0.0362,-0.0318,-0.028,-0.0242,-0.0186,-0.014,-0.0104,-0.0056,-0.0031,-0.0026,-0.0019,-0.0021,-0.0015,-0.006,-0.0073,-0.0024,-0.0024,-0.0024,-0.0024,-0.0024,-0.0024,-0.0559,-0.0507,-0.049,-0.0422,-0.0395,-0.0345,-0.0322,-0.029,-0.026,-0.0199,-0.016,-0.0137,-0.01,-0.0049,-0.0006,0.0003,0.002,0.0026,0.0036,-0.0007,-0.0012,-0.0016,-0.0028,0.003,0.003,0.0078,0.0079,0.0079]}]]